LVMSA SADF-SAAR

Flight info

Callsign LVMSA
Flight time 1h 0m
Altitude 6000
Route DCT EZE19 DCT ATOVO W5 ESKON DCT
Aircraft BE36/L-S/C

Departure

Time 2026-04-18 01:28
Airport San Fernando Airport (SADF)

Arrival

Time 2026-04-18 02:28
Airport Rosario Islas Malvinas International Airport (SAAR)
Time Latitude Longitude Altitude Speed Heading
2026-04-18 01:09 -34.45935 -58.59265 9 ft 0 kts 62°
2026-04-18 01:22 -34.45923 -58.59244 9 ft 8 kts 41°
2026-04-18 01:22 -34.45863 -58.59217 9 ft 12 kts 60°
2026-04-18 01:22 -34.45815 -58.59107 9 ft 17 kts 63°
2026-04-18 01:22 -34.45755 -58.58964 9 ft 20 kts 63°
2026-04-18 01:23 -34.45686 -58.58804 9 ft 22 kts 62°
2026-04-18 01:23 -34.45611 -58.58631 9 ft 23 kts 62°
2026-04-18 01:23 -34.45536 -58.58454 9 ft 24 kts 63°
2026-04-18 01:23 -34.45456 -58.58269 9 ft 24 kts 62°
2026-04-18 01:24 -34.45377 -58.58084 9 ft 23 kts 63°
2026-04-18 01:24 -34.45298 -58.57989 9 ft 14 kts 330°
2026-04-18 01:24 -34.45196 -58.58064 9 ft 20 kts 329°
2026-04-18 01:24 -34.45060 -58.58161 9 ft 24 kts 329°
2026-04-18 01:25 -34.44917 -58.58263 9 ft 19 kts 324°
2026-04-18 01:25 -34.44906 -58.58272 9 ft 0 kts 328°
2026-04-18 01:26 -34.44888 -58.58287 9 ft 10 kts 324°
2026-04-18 01:26 -34.44863 -58.58390 9 ft 17 kts 230°
2026-04-18 01:27 -34.45063 -58.58628 9 ft 70 kts 223°
2026-04-18 01:27 -34.45490 -58.59119 67 ft 90 kts 224°
2026-04-18 01:27 -34.45973 -58.59653 314 ft 94 kts 224°
2026-04-18 01:27 -34.46441 -58.60192 589 ft 92 kts 223°
2026-04-18 01:28 -34.46865 -58.60761 840 ft 92 kts 231°
2026-04-18 01:28 -34.47148 -58.61451 1059 ft 93 kts 249°
2026-04-18 01:28 -34.47245 -58.62239 1261 ft 96 kts 263°
2026-04-18 01:28 -34.47178 -58.63068 1426 ft 103 kts 276°
2026-04-18 01:29 -34.46875 -58.63876 1624 ft 106 kts 290°
2026-04-18 01:29 -34.46505 -58.64673 1798 ft 109 kts 290°
2026-04-18 01:29 -34.46131 -58.65473 2011 ft 108 kts 289°
2026-04-18 01:29 -34.45718 -58.66263 2165 ft 113 kts 294°
2026-04-18 01:30 -34.45329 -58.67070 2365 ft 113 kts 298°
2026-04-18 01:30 -34.44854 -58.67840 2563 ft 111 kts 290°
2026-04-18 01:30 -34.44606 -58.68689 2753 ft 108 kts 280°
2026-04-18 01:30 -34.44252 -58.69516 2945 ft 110 kts 289°
2026-04-18 01:31 -34.43883 -58.70314 3161 ft 107 kts 290°
2026-04-18 01:31 -34.43498 -58.71113 3313 ft 110 kts 290°
2026-04-18 01:31 -34.43086 -58.71915 3430 ft 121 kts 306°
2026-04-18 01:31 -34.42551 -58.72687 3659 ft 114 kts 298°
2026-04-18 01:32 -34.42081 -58.73418 3823 ft 116 kts 298°
2026-04-18 01:32 -34.41589 -58.74225 4028 ft 113 kts 298°
2026-04-18 01:32 -34.41114 -58.74968 4199 ft 114 kts 298°
2026-04-18 01:32 -34.40628 -58.75732 4337 ft 117 kts 298°
2026-04-18 01:33 -34.40125 -58.76527 4489 ft 120 kts 299°
2026-04-18 01:33 -34.39618 -58.77333 4665 ft 120 kts 298°
2026-04-18 01:33 -34.39114 -58.78134 4838 ft 120 kts 299°
2026-04-18 01:33 -34.38614 -58.78927 5013 ft 119 kts 298°
2026-04-18 01:34 -34.38111 -58.79724 5187 ft 119 kts 299°
2026-04-18 01:34 -34.37603 -58.80523 5363 ft 118 kts 298°
2026-04-18 01:34 -34.37097 -58.81296 5532 ft 117 kts 298°
2026-04-18 01:34 -34.36596 -58.82067 5704 ft 117 kts 298°
2026-04-18 01:35 -34.36082 -58.82841 5881 ft 120 kts 298°
2026-04-18 01:35 -34.35552 -58.83651 6060 ft 123 kts 298°
2026-04-18 01:35 -34.35012 -58.84491 6122 ft 135 kts 298°
2026-04-18 01:35 -34.34423 -58.85454 6085 ft 147 kts 298°
2026-04-18 01:36 -34.33806 -58.86493 6027 ft 155 kts 299°
2026-04-18 01:36 -34.33178 -58.87556 5958 ft 158 kts 299°
2026-04-18 01:36 -34.32528 -58.88662 5907 ft 160 kts 298°
2026-04-18 01:36 -34.31891 -58.89744 5913 ft 157 kts 298°
2026-04-18 01:37 -34.31256 -58.90810 5911 ft 155 kts 299°
2026-04-18 01:37 -34.30635 -58.91869 5915 ft 156 kts 299°
2026-04-18 01:37 -34.30006 -58.92955 5913 ft 159 kts 298°
2026-04-18 01:37 -34.29363 -58.94049 5915 ft 161 kts 298°
2026-04-18 01:38 -34.28701 -58.95158 5915 ft 163 kts 298°
2026-04-18 01:38 -34.28041 -58.96275 5915 ft 163 kts 299°
2026-04-18 01:38 -34.27392 -58.97405 5914 ft 164 kts 298°
2026-04-18 01:38 -34.26726 -58.98547 5912 ft 166 kts 298°
2026-04-18 01:39 -34.26058 -58.99685 5911 ft 166 kts 299°
2026-04-18 01:39 -34.25410 -59.00815 5915 ft 160 kts 299°
2026-04-18 01:39 -34.24757 -59.01941 5912 ft 162 kts 298°
2026-04-18 01:39 -34.24091 -59.03045 5911 ft 164 kts 302°
2026-04-18 01:40 -34.23403 -59.04134 5916 ft 164 kts 300°
2026-04-18 01:40 -34.22709 -59.05240 5917 ft 167 kts 300°
2026-04-18 01:40 -34.21927 -59.06299 5904 ft 173 kts 315°
2026-04-18 01:40 -34.20903 -59.07095 5908 ft 176 kts 322°
2026-04-18 01:41 -34.19971 -59.08021 5915 ft 173 kts 310°
2026-04-18 01:41 -34.19090 -59.09006 5912 ft 174 kts 310°
2026-04-18 01:41 -34.18211 -59.10004 5915 ft 174 kts 310°
2026-04-18 01:41 -34.17326 -59.11009 5916 ft 174 kts 310°
2026-04-18 01:42 -34.16437 -59.12013 5913 ft 175 kts 310°
2026-04-18 01:42 -34.15555 -59.13015 5912 ft 174 kts 310°
2026-04-18 01:42 -34.14670 -59.14015 5913 ft 174 kts 310°
2026-04-18 01:42 -34.13785 -59.15026 5917 ft 174 kts 310°
2026-04-18 01:43 -34.12897 -59.16031 5918 ft 174 kts 310°
2026-04-18 01:43 -34.12020 -59.17041 5917 ft 174 kts 310°
2026-04-18 01:43 -34.11139 -59.18056 5920 ft 174 kts 310°
2026-04-18 01:43 -34.10263 -59.19059 5920 ft 174 kts 310°
2026-04-18 01:44 -34.09379 -59.20074 5917 ft 174 kts 310°
2026-04-18 01:44 -34.08492 -59.21080 5916 ft 175 kts 310°
2026-04-18 01:44 -34.07614 -59.22094 5919 ft 174 kts 310°
2026-04-18 01:44 -34.06733 -59.23098 5919 ft 175 kts 310°
2026-04-18 01:45 -34.05859 -59.24107 5922 ft 175 kts 310°
2026-04-18 01:45 -34.04963 -59.25121 5920 ft 175 kts 310°
2026-04-18 01:45 -34.04090 -59.26130 5919 ft 175 kts 310°
2026-04-18 01:45 -34.03202 -59.27132 5918 ft 175 kts 310°
2026-04-18 01:46 -34.02321 -59.28136 5920 ft 174 kts 310°
2026-04-18 01:46 -34.01436 -59.29143 5922 ft 175 kts 310°
2026-04-18 01:46 -34.00555 -59.30164 5923 ft 175 kts 310°
2026-04-18 01:46 -33.99672 -59.31170 5925 ft 175 kts 310°
2026-04-18 01:47 -33.98794 -59.32181 5927 ft 175 kts 310°
2026-04-18 01:47 -33.97911 -59.33203 5925 ft 175 kts 310°
2026-04-18 01:47 -33.97031 -59.34213 5925 ft 175 kts 310°
2026-04-18 01:47 -33.96156 -59.35229 5927 ft 175 kts 310°
2026-04-18 01:48 -33.95270 -59.36246 5931 ft 175 kts 310°
2026-04-18 01:48 -33.94385 -59.37265 5932 ft 175 kts 310°
2026-04-18 01:48 -33.93511 -59.38288 5932 ft 175 kts 310°
2026-04-18 01:48 -33.92635 -59.39302 5930 ft 176 kts 310°
2026-04-18 01:49 -33.91748 -59.40327 5931 ft 176 kts 310°
2026-04-18 01:49 -33.90869 -59.41342 5931 ft 176 kts 310°
2026-04-18 01:49 -33.89984 -59.42370 5931 ft 176 kts 310°
2026-04-18 01:49 -33.89097 -59.43395 5928 ft 176 kts 310°
2026-04-18 01:50 -33.88215 -59.44427 5924 ft 176 kts 310°
2026-04-18 01:50 -33.87334 -59.45444 5928 ft 176 kts 310°
2026-04-18 01:50 -33.86445 -59.46470 5926 ft 176 kts 310°
2026-04-18 01:50 -33.85566 -59.47487 5931 ft 177 kts 310°
2026-04-18 01:51 -33.84672 -59.48526 5930 ft 178 kts 310°
2026-04-18 01:51 -33.83782 -59.49568 5931 ft 179 kts 310°
2026-04-18 01:51 -33.82887 -59.50607 5928 ft 180 kts 310°
2026-04-18 01:51 -33.81990 -59.51653 5929 ft 180 kts 310°
2026-04-18 01:52 -33.81081 -59.52706 5931 ft 180 kts 310°
2026-04-18 01:52 -33.80185 -59.53747 5930 ft 178 kts 310°
2026-04-18 01:52 -33.79295 -59.54774 5930 ft 178 kts 310°
2026-04-18 01:52 -33.78403 -59.55824 5930 ft 177 kts 310°
2026-04-18 01:53 -33.77529 -59.56850 5929 ft 177 kts 310°
2026-04-18 01:53 -33.76638 -59.57892 5930 ft 177 kts 310°
2026-04-18 01:53 -33.75766 -59.58911 5932 ft 177 kts 310°
2026-04-18 01:54 -33.73994 -59.60988 5937 ft 177 kts 310°
2026-04-18 01:54 -33.73119 -59.62018 5937 ft 177 kts 310°
2026-04-18 01:54 -33.72229 -59.63067 5936 ft 178 kts 310°
2026-04-18 01:54 -33.71345 -59.64108 5933 ft 178 kts 310°
2026-04-18 01:55 -33.70466 -59.65149 5934 ft 178 kts 311°
2026-04-18 01:55 -33.69583 -59.66207 5937 ft 178 kts 310°
2026-04-18 01:55 -33.68700 -59.67240 5937 ft 178 kts 310°
2026-04-18 01:55 -33.67822 -59.68284 5911 ft 178 kts 310°
2026-04-18 01:56 -33.66942 -59.69316 5934 ft 177 kts 311°
2026-04-18 01:56 -33.66063 -59.70349 5935 ft 178 kts 311°
2026-04-18 01:56 -33.65186 -59.71395 5936 ft 178 kts 311°
2026-04-18 01:56 -33.64304 -59.72456 5940 ft 178 kts 311°
2026-04-18 01:57 -33.63435 -59.73492 5940 ft 178 kts 310°
2026-04-18 01:57 -33.62627 -59.74622 5947 ft 175 kts 301°
2026-04-18 01:57 -33.61916 -59.75822 5942 ft 177 kts 301°
2026-04-18 01:57 -33.61205 -59.77023 5942 ft 177 kts 301°
2026-04-18 01:58 -33.60490 -59.78218 5943 ft 177 kts 301°
2026-04-18 01:58 -33.59781 -59.79429 5940 ft 178 kts 301°
2026-04-18 01:58 -33.59067 -59.80651 5944 ft 178 kts 300°
2026-04-18 01:58 -33.58358 -59.81873 5945 ft 178 kts 301°
2026-04-18 01:59 -33.57657 -59.83078 5945 ft 178 kts 301°
2026-04-18 01:59 -33.56952 -59.84293 5947 ft 178 kts 301°
2026-04-18 01:59 -33.56246 -59.85511 5944 ft 178 kts 301°
2026-04-18 01:59 -33.55539 -59.86722 5942 ft 177 kts 301°
2026-04-18 02:00 -33.54826 -59.87941 5946 ft 177 kts 301°
2026-04-18 02:00 -33.54120 -59.89155 5949 ft 177 kts 300°
2026-04-18 02:00 -33.53419 -59.90358 5954 ft 177 kts 301°
2026-04-18 02:00 -33.52712 -59.91579 5948 ft 178 kts 301°
2026-04-18 02:01 -33.52009 -59.92795 5953 ft 178 kts 301°
2026-04-18 02:01 -33.51308 -59.94027 5948 ft 178 kts 301°
2026-04-18 02:01 -33.50613 -59.95249 5949 ft 178 kts 301°
2026-04-18 02:01 -33.49915 -59.96482 5951 ft 179 kts 301°
2026-04-18 02:02 -33.49221 -59.97705 5952 ft 179 kts 301°
2026-04-18 02:02 -33.48513 -59.98936 5949 ft 179 kts 300°
2026-04-18 02:02 -33.47796 -60.00163 5949 ft 178 kts 300°
2026-04-18 02:02 -33.47084 -60.01388 5949 ft 178 kts 301°
2026-04-18 02:03 -33.46375 -60.02604 5948 ft 178 kts 301°
2026-04-18 02:03 -33.45679 -60.03809 5950 ft 178 kts 301°
2026-04-18 02:03 -33.44980 -60.05034 5951 ft 178 kts 301°
2026-04-18 02:03 -33.44270 -60.06275 5950 ft 179 kts 300°
2026-04-18 02:04 -33.43573 -60.07497 5951 ft 179 kts 300°
2026-04-18 02:04 -33.42870 -60.08733 5952 ft 179 kts 300°
2026-04-18 02:04 -33.42165 -60.09974 5952 ft 179 kts 301°
2026-04-18 02:04 -33.41467 -60.11205 5951 ft 179 kts 301°
2026-04-18 02:05 -33.40770 -60.12442 5952 ft 179 kts 300°
2026-04-18 02:05 -33.40065 -60.13671 5950 ft 179 kts 301°
2026-04-18 02:05 -33.39354 -60.14901 5952 ft 179 kts 300°
2026-04-18 02:05 -33.38644 -60.16132 5952 ft 179 kts 301°
2026-04-18 02:06 -33.37951 -60.17359 5950 ft 179 kts 301°
2026-04-18 02:06 -33.37247 -60.18599 5949 ft 179 kts 300°
2026-04-18 02:06 -33.36540 -60.19831 5951 ft 180 kts 300°
2026-04-18 02:06 -33.35826 -60.21073 5951 ft 180 kts 300°
2026-04-18 02:07 -33.35128 -60.22300 5953 ft 180 kts 301°
2026-04-18 02:07 -33.34426 -60.23538 5951 ft 180 kts 301°
2026-04-18 02:07 -33.33724 -60.24785 5950 ft 180 kts 301°
2026-04-18 02:07 -33.33028 -60.26031 5951 ft 180 kts 300°
2026-04-18 02:08 -33.32274 -60.27232 5924 ft 183 kts 316°
2026-04-18 02:08 -33.31155 -60.27948 5946 ft 183 kts 332°
2026-04-18 02:08 -33.29997 -60.28601 5953 ft 183 kts 333°
2026-04-18 02:08 -33.28849 -60.29255 5949 ft 183 kts 332°
2026-04-18 02:09 -33.27697 -60.29915 5950 ft 184 kts 332°
2026-04-18 02:09 -33.26537 -60.30580 5953 ft 184 kts 332°
2026-04-18 02:09 -33.25386 -60.31240 5954 ft 184 kts 332°
2026-04-18 02:09 -33.24229 -60.31900 5953 ft 184 kts 333°
2026-04-18 02:10 -33.23068 -60.32561 5951 ft 183 kts 332°
2026-04-18 02:10 -33.21924 -60.33212 5946 ft 182 kts 332°
2026-04-18 02:10 -33.20759 -60.33884 5769 ft 185 kts 332°
2026-04-18 02:10 -33.19611 -60.34552 5603 ft 185 kts 332°
2026-04-18 02:11 -33.18447 -60.35235 5431 ft 184 kts 332°
2026-04-18 02:11 -33.17297 -60.35914 5260 ft 185 kts 332°
2026-04-18 02:11 -33.16144 -60.36601 5095 ft 185 kts 332°
2026-04-18 02:11 -33.15003 -60.37288 4924 ft 184 kts 332°
2026-04-18 02:12 -33.13870 -60.37975 4753 ft 182 kts 332°
2026-04-18 02:12 -33.12748 -60.38658 4580 ft 180 kts 332°
2026-04-18 02:12 -33.11626 -60.39348 4405 ft 179 kts 332°
2026-04-18 02:12 -33.10522 -60.40026 4232 ft 178 kts 332°
2026-04-18 02:13 -33.09426 -60.40710 4061 ft 178 kts 332°
2026-04-18 02:13 -33.08337 -60.41383 3891 ft 177 kts 333°
2026-04-18 02:13 -33.07238 -60.42070 3722 ft 177 kts 333°
2026-04-18 02:13 -33.06153 -60.42755 3550 ft 177 kts 332°
2026-04-18 02:14 -33.05064 -60.43443 3376 ft 177 kts 333°
2026-04-18 02:14 -33.03978 -60.44134 3201 ft 176 kts 332°
2026-04-18 02:14 -33.02895 -60.44814 3030 ft 174 kts 332°
2026-04-18 02:14 -33.01824 -60.45491 2860 ft 173 kts 332°
2026-04-18 02:15 -33.00773 -60.46158 2788 ft 167 kts 332°
2026-04-18 02:15 -32.99753 -60.46806 2768 ft 168 kts 332°
2026-04-18 02:15 -32.98741 -60.47460 2881 ft 161 kts 332°
2026-04-18 02:15 -32.97753 -60.48083 2915 ft 162 kts 332°
2026-04-18 02:16 -32.96750 -60.48723 2914 ft 164 kts 332°
2026-04-18 02:16 -32.95737 -60.49374 2919 ft 166 kts 332°
2026-04-18 02:16 -32.94714 -60.50019 2911 ft 167 kts 332°
2026-04-18 02:16 -32.93680 -60.50670 2910 ft 168 kts 332°
2026-04-18 02:17 -32.92654 -60.51319 2910 ft 168 kts 333°
2026-04-18 02:17 -32.91616 -60.51973 2920 ft 168 kts 332°
2026-04-18 02:17 -32.90588 -60.52629 2926 ft 169 kts 332°
2026-04-18 02:17 -32.89543 -60.53297 2925 ft 169 kts 332°
2026-04-18 02:18 -32.88513 -60.53952 2919 ft 169 kts 333°
2026-04-18 02:18 -32.87463 -60.54626 2919 ft 169 kts 332°
2026-04-18 02:18 -32.86428 -60.55293 2922 ft 169 kts 332°
2026-04-18 02:18 -32.85398 -60.55954 2926 ft 169 kts 332°
2026-04-18 02:19 -32.84349 -60.56617 2925 ft 169 kts 332°
2026-04-18 02:19 -32.83311 -60.57283 2927 ft 169 kts 332°
2026-04-18 02:19 -32.82273 -60.57949 2923 ft 170 kts 332°
2026-04-18 02:19 -32.81232 -60.58619 2923 ft 170 kts 332°
2026-04-18 02:20 -32.80188 -60.59292 2923 ft 170 kts 332°
2026-04-18 02:20 -32.79149 -60.59957 2923 ft 170 kts 332°
2026-04-18 02:20 -32.78100 -60.60629 2924 ft 170 kts 332°
2026-04-18 02:20 -32.77076 -60.61338 2941 ft 169 kts 321°
2026-04-18 02:21 -32.76505 -60.62533 2862 ft 175 kts 280°
2026-04-18 02:21 -32.76301 -60.63955 2796 ft 171 kts 277°
2026-04-18 02:21 -32.76154 -60.65356 2691 ft 170 kts 277°
2026-04-18 02:21 -32.75998 -60.66746 2581 ft 167 kts 280°
2026-04-18 02:22 -32.75795 -60.68082 2478 ft 164 kts 280°
2026-04-18 02:22 -32.75597 -60.69420 2327 ft 163 kts 280°
2026-04-18 02:22 -32.75425 -60.70748 2109 ft 165 kts 278°
2026-04-18 02:22 -32.75265 -60.72089 2000 ft 159 kts 278°
2026-04-18 02:23 -32.75496 -60.73281 2009 ft 148 kts 229°
2026-04-18 02:23 -32.76183 -60.74147 2026 ft 140 kts 219°
2026-04-18 02:23 -32.76860 -60.74939 2087 ft 134 kts 224°
2026-04-18 02:23 -32.77548 -60.75641 2129 ft 130 kts 197°
2026-04-18 02:24 -32.78440 -60.75833 2128 ft 131 kts 183°
2026-04-18 02:24 -32.79356 -60.76012 2106 ft 134 kts 188°
2026-04-18 02:24 -32.80281 -60.76215 2064 ft 136 kts 186°
2026-04-18 02:24 -32.81211 -60.76410 1932 ft 133 kts 187°
2026-04-18 02:25 -32.82011 -60.76582 1706 ft 105 kts 185°
2026-04-18 02:25 -32.82703 -60.76751 1461 ft 100 kts 187°
2026-04-18 02:25 -32.83379 -60.76920 1219 ft 98 kts 186°
2026-04-18 02:25 -32.84058 -60.77060 1078 ft 100 kts 185°
2026-04-18 02:26 -32.84744 -60.77191 946 ft 99 kts 186°
2026-04-18 02:26 -32.85426 -60.77339 806 ft 99 kts 187°
2026-04-18 02:26 -32.86099 -60.77492 684 ft 96 kts 187°
2026-04-18 02:26 -32.86729 -60.77635 571 ft 87 kts 188°
2026-04-18 02:27 -32.87305 -60.77773 464 ft 83 kts 188°
2026-04-18 02:27 -32.87872 -60.77902 368 ft 82 kts 188°
2026-04-18 02:27 -32.88436 -60.78025 238 ft 83 kts 187°
2026-04-18 02:27 -32.89006 -60.78157 122 ft 79 kts 190°
2026-04-18 02:28 -32.89458 -60.78257 82 ft 55 kts 190°
2026-04-18 02:28 -32.89809 -60.78336 85 ft 48 kts 190°
2026-04-18 02:28 -32.90141 -60.78412 88 ft 47 kts 191°
2026-04-18 02:28 -32.90468 -60.78488 88 ft 48 kts 191°
2026-04-18 02:29 -32.90773 -60.78561 89 ft 37 kts 191°
2026-04-18 02:29 -32.90997 -60.78523 89 ft 31 kts 159°
2026-04-18 02:29 -32.91181 -60.78386 86 ft 31 kts 141°
2026-04-18 02:29 -32.91352 -60.78226 83 ft 29 kts 141°
2026-04-18 02:30 -32.91505 -60.78196 82 ft 21 kts 203°
2026-04-18 02:30 -32.91639 -60.78257 82 ft 20 kts 201°
2026-04-18 02:30 -32.91734 -60.78271 82 ft 11 kts 111°
2026-04-18 02:30 -32.91803 -60.78256 82 ft 12 kts 201°
2026-04-18 02:31 -32.91830 -60.78208 82 ft 9 kts 28°
2026-04-18 02:31 -32.91819 -60.78202 82 ft 0 kts 18°